Regional Weather Roundup
Issued by NWS

Home | Current Version | Previous Version | Graphics & Text | Print | Product List | Glossary Off
Versions: 1 2 3 4 5 6 7 8 9 10 11 12 13 14 15 16 17 18 19 20 21 22 23 24 25 26 27 28 29 30 31 32 33 34 35 36 37 38 39 40 41 42 43 44 45 46 47 48 49 50

000
ASUS43 KMKX 300411
RWRWI

WISCONSIN REGIONAL WEATHER ROUNDUP
NATIONAL WEATHER SERVICE MILWAUKEE/SULLIVAN WI
1100 PM CDT MON JUN 29 2015

NOTE: "FAIR" INDICATES FEW OR NO CLOUDS BELOW 12,000 FEET WITH NO
SIGNIFICANT WEATHER AND/OR OBSTRUCTIONS TO VISIBILITY.

WIZ001-002-006>008-014>016-023>028-300500-
NORTHWEST WISCONSIN

CITY           SKY/WX    TMP DP  RH WIND       PRES   REMARKS
SUPERIOR ARPT  PTCLDY    60  60  98 CALM      29.84R
ASHLAND        MOCLDY    62  60  93 NE7       29.84R
HAYWARD        CLOUDY    63  60  90 CALM      29.85R
SIREN          CLEAR     58  57  97 CALM      29.84R
CUMBERLAND     CLEAR     57  55  94 SW3       29.84R FOG
RICE LAKE      CLEAR     60  58  93 CALM      29.85R FOG
CHETEK         CLEAR     59  59 100 W3        29.84R FOG
LADYSMITH      CLEAR     58  57  96 CALM      29.85R THUNDER FOG
EAU CLAIRE     CLEAR     56  55  97 CALM      29.82R FOG
MENOMONIE      CLEAR     61  60  96 CALM      29.83S FOG
NEW RICHMOND   CLEAR     59  59 100 CALM      29.83S FOG
OSCEOLA        CLEAR     60  60 100 CALM      29.85S FOG
$$

WIZ003>005-009-010-017-018-300500-
NORTH CENTRAL WISCONSIN

CITY           SKY/WX    TMP DP  RH WIND       PRES   REMARKS
MANITOWISH WTR MOCLDY    59  59 100 N3        29.82S
ARBOR VITAE    MOCLDY    62  60  94 N3        29.81S FOG
WOODRUFF       MOCLDY    62  60  94 N3        29.81S FOG
RHINELANDER    MOCLDY    60  58  92 CALM      29.81R FOG
EAGLE RIVER    MOCLDY    58  58 100 CALM      29.80S FOG
LAND O LAKES   CLOUDY    60  59  97 NW3       29.83R
PHILLIPS       MOCLDY    59  59 100 CALM      29.82R
TOMAHAWK       MOCLDY    56  56  97 W3        29.81S FOG
MEDFORD        CLEAR     56  55  99 CALM      29.82R FOG
MERRILL        CLEAR     59  59 100 CALM      29.81S FOG
$$

WIZ029-030-035-036-043>047-300500-
CENTRAL WISCONSIN

CITY           SKY/WX    TMP DP  RH WIND       PRES   REMARKS
WAUSAU         PTCLDY    61  58  90 NW8       29.79R
MOSINEE        NOT AVBL
MARSHFIELD     PTCLDY    59  55  87 NW3       29.81R FOG
STEVENS POINT  MOCLDY    57  56  96 CALM      29.80S
WAUPACA        MOCLDY    61  61  99 CALM      29.78R FOG
WAUTOMA        MOCLDY    62  62 100 SW6       29.79S
WISC RAPIDS    MOCLDY    59  57  93 W5        29.82R
CAMP DOUGLAS   MOCLDY    57  57 100 NW5       29.81S FOG
$$

WIZ011>013-019>022-031-037>040-048>050-300500-
NORTHEAST WISCONSIN

CITY           SKY/WX    TMP DP  RH WIND       PRES   REMARKS
ANTIGO         PTCLDY    57  57  99 NW3       29.80R FOG
SHAWANO        MOCLDY    64  61  91 NW5       29.77R
OCONTO         CLOUDY    64  64 100 CALM      29.75S
STURGEON BAY   CLOUDY    63  55  77 SW8       29.79R
GREEN BAY      CLOUDY    65  63  93 CALM      29.76F
MANITOWOC      CLOUDY    64  61  90 MISG      29.77F
APPLETON       MOCLDY    63  57  82 CALM      29.78R
CLINTONVILLE   MOCLDY   N/A N/A N/A CALM      29.77R
OSHKOSH        MOCLDY    63  59  87 CALM      29.77R
$$

WIZ032>034-041-042-053>061-300500-
SOUTHWEST WISCONSIN

CITY           SKY/WX    TMP DP  RH WIND       PRES   REMARKS
LA CROSSE      CLOUDY    63  60  90 W5        29.82R
SPARTA         MOCLDY    57  56  95 CALM      29.83R FOG
VIROQUA        CLOUDY    60  60 100 SW3       29.83R
BOSCOBEL       CLOUDY    63  61  93 SW5       29.82R
PRAIRIE DU CHI CLOUDY    62  61  96 CALM      29.81F
PLATTEVILLE    CLOUDY    64  63  97 W10       29.84R
$$

WIZ056-057-062-063-064-067-068-300500-
SOUTH CENTRAL WISCONSIN

CITY           SKY/WX    TMP DP  RH WIND       PRES   REMARKS
REEDSBURG      MOCLDY    61  59  95 CALM      29.80S
BARABOO/DELLS  MOCLDY    60  58  94 CALM      29.80S
LONE ROCK      CLOUDY    63  60  90 W3        29.81R
MINERAL POINT  CLOUDY    63  61  94 CALM      29.82R
MADISON        MOCLDY    61  58  90 N5        29.79R
MIDDLETON      MOCLDY    62  61  97 NW3       29.81S
WATERTOWN      CLOUDY    62  62 100 CALM      29.77F
MONROE         CLOUDY    61  61 100 SW7       29.80S
JANESVILLE     CLOUDY    63  61  94 CALM      29.77F
$$

WIZ051-052-058>065-066-070>072-300500-
SOUTHEAST WISCONSIN

CITY           SKY/WX    TMP DP  RH WIND       PRES   REMARKS
MILWAUKEE      MOCLDY    63  60  90 S8        29.78F
WAUKESHA       MOCLDY    63  61  94 CALM      29.79F
MILWAUKEE/TIMM MOCLDY    64  59  82 S5        29.78F
RACINE         CLOUDY    63  61  93 S7        29.79F FOG
BURLINGTON     LGT RAIN  60  60  98 CALM      29.78F
KENOSHA        PTCLDY    64  61  90 S5        29.78F FOG
FOND DU LAC    MOCLDY    64  60  87 SW5       29.77F
SHEBOYGAN      MOCLDY    63  60  90 S6        29.77S
WEST BEND      CLOUDY    63  61  94 SE3       29.78S
JUNEAU         CLOUDY    62  60  94 CALM      29.78F
$$

LSZ147-162-300500-
LAKE SUPERIOR

STATION/POSITION TIME  TEMP    WIND        PRES    WAVE
                       AIR SEA DIR/SP/G            HT/PER
                 (UTC) (F)     (DEG/KT/KT) (MB)    (FT/S)
W MID LAKE BUOY  0350   45 38  360/  6/  8 1010.3R   0
DEVILS ISLAND    0400   59      40/  6/  6 1010.4R
SAXON HARBOR     0300   64      20/  6/  9 1009.5R
$$

LMZ867-665-643>646-300500-
LAKE MICHIGAN

STATION/POSITION TIME  TEMP    WIND        PRES    WAVE
                       AIR SEA DIR/SP/G            HT/PER
                 (UTC) (F)     (DEG/KT/KT) (MB)    (FT/S)
CHAMBERS ISLAND  0300   66      CALM  /  2 1007.8S
S GREEN BAY BUOY 0300   70 71  220/ 10/ 14 1009.1
N MID LAKE BUOY  0350   54 51  200/  8/ 10 1008.4S   1/ 3
NORTHPORT PIER   0300   65      CALM  /  3 1008.1R
ALGOMA LAKESHORE 0325          220/ 10/ 11   N/A
KEWAUNEE LAKESHO 0300   60     180/ 10/ 12 1007.5R
SHEBOYGAN LAKESH 0400   59     180/ 13/ 14 1008.4F
PORT WASHINGTON  0300   63     180/  7/ 10 1009.1R
ATWATER BUOY     0400   61 59  160/ 10/ 12 1009.6F
MILWAUKEE LAKESH 0300   62     150/  5/  6   N/A
KENOSHA   LAKESH 0400   61     180/  8/ 10 1008.5F
$$

TC  - TEMPERATURE IN CELSIUS
VSB - VISIBILITY IN STATUTE MILES
WCI - WIND CHILL INDEX
HX  - HEAT INDEX



USA.gov is the U.S. government's official web portal to all federal, state and local government web resources and services.